Weather History for KBKV - March, 2014

Change the Weather History Date:

Friday, March 14, 2014

  Actual Average Record
Temperature  
Mean Temperature 54 °F -  
Max Temperature 75 °F 74 °F 86 °F (2015)
Min Temperature 35 °F 50 °F 32 °F (1998)
Degree Days  
Heating Degree Days 11    
Growing Degree Days 4 (Base 50)    
Moisture  
Dew Point 42 °F    
Average Humidity 63    
Maximum Humidity 96    
Minimum Humidity 33    
Precipitation  
Precipitation 0.00 in - - ()
Sea Level Pressure  
Sea Level Pressure 30.25 in    
Wind  
Wind Speed 4 mph (East)    
Max Wind Speed 13 mph    
Max Gust Speed 22 mph    
Visibility 10 miles    
Events      
Averages and records for this station are not official NWS values.
T = Trace of Precipitation, MM = Missing Value Source: NWS Daily Summary

Daily Weather History Graph

Daily Weather History Graph

Search for Another Location

Airport or City:

Trip Planner

Search our weather history database for the weather conditions in past years. The results will help you decide how hot, cold, wet, or windy it might be!

Date:

Astronomy

Mar. 14, 2014 Rise Set
Actual Time 7:40 AM EDT 7:37 PM EDT
Civil Twilight 7:17 AM EDT 8:01 PM EDT
Nautical Twilight 6:49 AM EDT 8:28 PM EDT
Astronomical Twilight 6:22 AM EDT 8:56 PM EDT
Moon 6:04 PM EDT (3/14) 6:12 AM EDT (3/14)
Length of Visible Light 12h 44m
Length of Day
11h 57m
Waxing Gibbous, 96% of the Moon is Illuminated
Mar 14
Waxing Gibbous
Mar 16
Full
Mar 23
Last Quarter
Mar 30
New
Apr 7
First Quarter

Hourly Weather History & Observations

Time (EDT) Temp. Windchill Dew Point Humidity Pressure Visibility Wind Dir Wind Speed Gust Speed Precip Events Conditions
12:53 AM 45.0 °F 41.8 °F 37.0 °F 74% 30.26 in 10.0 mi NNE 5.8 mph - N/A   Clear
1:53 AM 44.1 °F - 36.0 °F 73% 30.26 in 10.0 mi Calm Calm - N/A   Clear
2:53 AM 39.9 °F - 36.0 °F 86% 30.25 in 10.0 mi Calm Calm - N/A   Clear
3:53 AM 37.0 °F - 35.1 °F 93% 30.25 in 10.0 mi Calm Calm - N/A   Clear
4:53 AM 37.9 °F - 35.1 °F 89% 30.24 in 10.0 mi Calm Calm - N/A   Clear
5:53 AM 35.1 °F - 34.0 °F 96% 30.25 in 10.0 mi Calm Calm - N/A   Clear
6:53 AM 36.0 °F - 33.1 °F 89% 30.27 in 10.0 mi Calm Calm - N/A   Clear
7:53 AM 39.0 °F 35.7 °F 34.0 °F 82% 30.28 in 10.0 mi NE 4.6 mph - N/A   Clear
8:53 AM 48.9 °F - 39.0 °F 69% 30.29 in 10.0 mi ENE 5.8 mph - N/A   Clear
9:53 AM 57.0 °F - 39.0 °F 51% 30.30 in 10.0 mi ENE 6.9 mph - N/A   Clear
10:53 AM 62.1 °F - 41.0 °F 46% 30.31 in 10.0 mi East 10.4 mph - N/A   Clear
11:53 AM 66.0 °F - 43.0 °F 43% 30.30 in 10.0 mi SE 10.4 mph 21.9 mph N/A   Clear
12:16 PM 66.9 °F - 43.0 °F 42% 30.30 in 10.0 mi East 9.2 mph - 0.00 in   Partly Cloudy
12:53 PM 69.1 °F - 44.1 °F 40% 30.29 in 10.0 mi East 12.7 mph - 0.00 in   Clear
1:53 PM 71.1 °F - 46.0 °F 41% 30.28 in 10.0 mi SSE 5.8 mph - N/A   Clear
2:53 PM 73.0 °F - 42.1 °F 33% 30.24 in 10.0 mi North - - N/A   Clear
3:53 PM 73.9 °F - 43.0 °F 33% 30.21 in 10.0 mi SE 5.8 mph - N/A   Clear
4:53 PM 73.9 °F - 43.0 °F 33% 30.18 in 10.0 mi SE 8.1 mph - N/A   Clear
5:53 PM 73.9 °F - 44.1 °F 34% 30.17 in 10.0 mi SE 9.2 mph - N/A   Clear
6:53 PM 68.0 °F - 48.9 °F 50% 30.17 in 10.0 mi WNW 10.4 mph - N/A   Clear
7:53 PM 62.1 °F - 48.9 °F 62% 30.19 in 10.0 mi WNW 6.9 mph - N/A   Clear
8:53 PM 60.1 °F - 50.0 °F 69% 30.20 in 10.0 mi NNE 3.5 mph - N/A   Clear
9:53 PM 55.9 °F - 48.9 °F 77% 30.21 in 10.0 mi Calm Calm - N/A   Clear
10:53 PM 54.0 °F - 48.9 °F 83% 30.23 in 10.0 mi Calm Calm - N/A   Clear
11:53 PM 53.1 °F - 48.9 °F 86% 30.22 in 10.0 mi ENE 3.5 mph - N/A   Clear